Kimball, NE

10:37 AM MDT on October 20, 2017 (GMT -0600)
Kimball Municipal-Arraj

Weather History for KIBM - March, 2012

Change the Weather History Date:

Saturday, March 3, 2012

  Actual Average (KSNY) Record (KSNY)
Temperature  
Mean Temperature 30 °F -  
Max Temperature 41 °F 41 °F 73 °F (2009)
Min Temperature 19 °F 16 °F -25 °F (1960)
Degree Days  
Heating Degree Days 35    
Moisture  
Dew Point 10 °F    
Average Humidity 42    
Maximum Humidity 60    
Minimum Humidity 28    
Precipitation  
Precipitation 0.00 in - - ()
Sea Level Pressure  
Sea Level Pressure 29.94 in    
Wind  
Wind Speed 22 mph (WNW)    
Max Wind Speed 38 mph    
Max Gust Speed 50 mph    
Visibility 10 miles    
Events      
Averages and records for this station are not official NWS values.
T = Trace of Precipitation, MM = Missing Value Source: NWS Daily Summary

Daily Weather History Graph

Daily Weather History Graph

Search for Another Location

Airport or City:

Trip Planner

Search our weather history database for the weather conditions in past years. The results will help you decide how hot, cold, wet, or windy it might be!

Date:

Astronomy

Mar. 03, 2012 Rise Set
Actual Time 7:25 AM CST 6:48 PM CST
Civil Twilight 6:57 AM CST 7:16 PM CST
Nautical Twilight 6:25 AM CST 7:48 PM CST
Astronomical Twilight 5:53 AM CST 8:20 PM CST
Moon 1:58 PM CST (3/3) 4:06 AM CST (3/3)
Length of Visible Light 12h 18m
Length of Day
11h 23m
Waxing Gibbous, 75% of the Moon is Illuminated
Mar 3
Waxing Gibbous
Mar 8
Full
Mar 14
Last Quarter
Mar 22
New
Mar 30
First Quarter

Hourly Weather History & Observations

Time (CST) Temp. Windchill Dew Point Humidity Pressure Visibility Wind Dir Wind Speed Gust Speed Precip Events Conditions
12:15 AM 19.4 °F 6.6 °F 7.3 °F 60% 29.97 in 10.0 mi West 12.7 mph - N/A   Clear
12:35 AM 19.0 °F 6.1 °F 7.3 °F 60% 29.96 in 10.0 mi West 12.7 mph - N/A   Clear
12:55 AM 19.4 °F 7.9 °F 6.8 °F 58% 29.96 in 10.0 mi West 10.4 mph - N/A   Clear
1:15 AM 20.7 °F 6.1 °F 6.4 °F 54% 29.96 in 10.0 mi WNW 17.3 mph - N/A   Clear
1:35 AM 20.5 °F 6.4 °F 5.9 °F 53% 29.96 in 10.0 mi WNW 16.1 mph - N/A   Clear
1:55 AM 21.2 °F 5.6 °F 5.7 °F 51% 29.95 in 10.0 mi WNW 20.7 mph 27.6 mph N/A   Clear
2:15 AM 21.4 °F 5.1 °F 5.5 °F 51% 29.95 in 10.0 mi WNW 23.0 mph 27.6 mph N/A   Clear
2:35 AM 22.6 °F 6.1 °F 6.6 °F 50% 29.95 in 10.0 mi WNW 25.3 mph 33.4 mph N/A   Clear
2:55 AM 23.4 °F 5.6 °F 6.4 °F 48% 29.95 in 10.0 mi WNW 31.1 mph 36.8 mph N/A   Clear
3:15 AM 23.7 °F 6.1 °F 6.4 °F 48% 29.94 in 10.0 mi WNW 31.1 mph 38.0 mph N/A   Scattered Clouds
3:35 AM 23.9 °F 7.5 °F 6.1 °F 47% 29.94 in 10.0 mi WNW 26.5 mph 41.4 mph N/A   Mostly Cloudy
3:55 AM 23.9 °F 8.4 °F 5.9 °F 46% 29.94 in 10.0 mi WNW 23.0 mph 33.4 mph N/A   Scattered Clouds
4:15 AM 23.7 °F 9.7 °F 5.9 °F 47% 29.94 in 10.0 mi WNW 18.4 mph 29.9 mph N/A   Scattered Clouds
4:35 AM 24.3 °F 9.6 °F 4.6 °F 43% 29.94 in 10.0 mi WNW 20.7 mph 28.8 mph N/A   Scattered Clouds
4:55 AM 23.0 °F 9.2 °F 4.1 °F 44% 29.94 in 10.0 mi West 17.3 mph 24.2 mph N/A   Scattered Clouds
5:15 AM 23.7 °F 9.3 °F 4.1 °F 43% 29.94 in 10.0 mi West 19.6 mph 27.6 mph N/A   Mostly Cloudy
5:35 AM 24.1 °F 8.7 °F 5.4 °F 45% 29.94 in 10.0 mi WNW 23.0 mph 29.9 mph N/A   Mostly Cloudy
6:15 AM 25.3 °F 8.3 °F 6.3 °F 44% 29.94 in 10.0 mi WNW 31.1 mph 42.6 mph N/A   Mostly Cloudy
6:35 AM 24.8 °F 8.1 °F 6.8 °F 46% 29.94 in 10.0 mi WNW 28.8 mph 39.1 mph N/A   Scattered Clouds
6:55 AM 24.4 °F 8.5 °F 7.5 °F 49% 29.94 in 10.0 mi WNW 25.3 mph 38.0 mph N/A   Clear
7:15 AM 23.9 °F 8.1 °F 7.9 °F 51% 29.95 in 10.0 mi WNW 24.2 mph 33.4 mph N/A   Clear
7:35 AM 24.1 °F 7.7 °F 8.4 °F 51% 29.96 in 10.0 mi WNW 26.5 mph 33.4 mph N/A   Clear
7:55 AM 24.6 °F 9.4 °F 8.4 °F 50% 29.97 in 10.0 mi WNW 23.0 mph 33.4 mph N/A   Clear
8:15 AM 25.5 °F 9.7 °F 9.0 °F 50% 29.98 in 10.0 mi WNW 26.5 mph 32.2 mph N/A   Scattered Clouds
8:35 AM 26.2 °F 10.1 °F 9.1 °F 49% 29.98 in 10.0 mi WNW 28.8 mph 35.7 mph N/A   Scattered Clouds
8:55 AM 27.3 °F 13.6 °F 9.7 °F 48% 29.98 in 10.0 mi WNW 20.7 mph 34.5 mph N/A   Clear
9:15 AM 29.1 °F 14.8 °F 9.1 °F 43% 29.98 in 10.0 mi NW 25.3 mph 38.0 mph N/A   Clear
9:35 AM 30.0 °F 14.9 °F 9.0 °F 41% 29.99 in 10.0 mi WNW 29.9 mph 40.3 mph N/A   Clear
9:55 AM 30.7 °F 16.4 °F 8.4 °F 39% 29.99 in 10.0 mi WNW 27.6 mph 38.0 mph N/A   Mostly Cloudy
10:15 AM 30.9 °F 17.2 °F 7.9 °F 38% 29.99 in 10.0 mi NW 25.3 mph 32.2 mph N/A   Overcast
10:35 AM 32.4 °F 19.4 °F 7.3 °F 35% 29.98 in 10.0 mi NW 24.2 mph 32.2 mph N/A   Scattered Clouds
11:15 AM 32.7 °F 20.7 °F 7.0 °F 34% 29.98 in 10.0 mi NW 20.7 mph 36.8 mph N/A   Clear
11:35 AM 34.2 °F 21.3 °F 7.2 °F 32% 29.98 in 10.0 mi NW 26.5 mph 34.5 mph N/A   Clear
11:55 AM 35.4 °F 23.5 °F 7.9 °F 32% 29.98 in 10.0 mi NW 24.2 mph 36.8 mph N/A   Clear
12:15 PM 35.1 °F 23.3 °F 7.0 °F 31% 29.97 in 10.0 mi NW 23.0 mph 38.0 mph N/A   Clear
12:35 PM 36.1 °F 23.9 °F 7.7 °F 31% 29.97 in 10.0 mi NW 26.5 mph 35.7 mph N/A   Clear
12:55 PM 35.8 °F 23.9 °F 8.1 °F 32% 29.97 in 10.0 mi NW 24.2 mph 35.7 mph N/A   Scattered Clouds
1:15 PM 37.4 °F 25.4 °F 9.0 °F 31% 29.96 in 10.0 mi NW 27.6 mph 33.4 mph N/A   Scattered Clouds
1:35 PM 38.3 °F 26.6 °F 8.8 °F 30% 29.95 in 10.0 mi NW 27.6 mph 42.6 mph N/A   Scattered Clouds
1:55 PM 39.2 °F 28.5 °F 8.6 °F 28% 29.95 in 10.0 mi NW 24.2 mph 39.1 mph N/A   Mostly Cloudy
2:15 PM 37.4 °F 26.4 °F 8.4 °F 30% 29.94 in 10.0 mi NW 23.0 mph 31.1 mph N/A   Mostly Cloudy
2:35 PM 39.9 °F 29.2 °F 10.0 °F 29% 29.94 in 10.0 mi WNW 25.3 mph 33.4 mph N/A   Mostly Cloudy
2:55 PM 38.7 °F 27.3 °F 9.3 °F 30% 29.92 in 10.0 mi NW 26.5 mph 35.7 mph N/A   Mostly Cloudy
3:15 PM 41.9 °F 31.9 °F 10.4 °F 28% 29.93 in 10.0 mi WNW 25.3 mph 36.8 mph N/A   Mostly Cloudy
3:35 PM 40.6 °F 30.7 °F 10.4 °F 29% 29.93 in 10.0 mi NW 23.0 mph 36.8 mph N/A   Mostly Cloudy
3:55 PM 41.4 °F 30.9 °F 10.9 °F 29% 29.92 in 10.0 mi NW 26.5 mph 43.7 mph N/A   Mostly Cloudy
4:15 PM 41.4 °F 29.6 °F 13.3 °F 32% 29.91 in 10.0 mi WNW 34.5 mph 47.2 mph N/A   Mostly Cloudy
4:35 PM 41.9 °F 29.9 °F 13.6 °F 32% 29.90 in 10.0 mi WNW 38.0 mph 49.5 mph N/A   Scattered Clouds
4:55 PM 41.5 °F 30.6 °F 14.9 °F 34% 29.90 in 10.0 mi WNW 29.9 mph 46.0 mph N/A   Scattered Clouds
5:15 PM 41.7 °F 30.6 °F 14.9 °F 34% 29.90 in 10.0 mi WNW 31.1 mph 44.9 mph N/A   Clear
5:35 PM 41.2 °F 30.5 °F 15.8 °F 36% 29.89 in 10.0 mi WNW 27.6 mph 38.0 mph N/A   Clear
5:55 PM 41.0 °F 30.9 °F 16.7 °F 37% 29.89 in 10.0 mi NW 24.2 mph 36.8 mph N/A   Clear
6:15 PM 39.9 °F 28.8 °F 16.7 °F 39% 29.90 in 10.0 mi WNW 27.6 mph 34.5 mph N/A   Clear
6:35 PM 39.2 °F 28.3 °F 18.0 °F 42% 29.89 in 10.0 mi WNW 25.3 mph 34.5 mph N/A   Clear
6:55 PM 38.1 °F 27.6 °F 18.5 °F 45% 29.89 in 10.0 mi WNW 21.9 mph 33.4 mph N/A   Clear
7:15 PM 38.3 °F 27.1 °F 18.7 °F 45% 29.88 in 10.0 mi WNW 25.3 mph 41.4 mph N/A   Clear
7:35 PM 37.8 °F 26.3 °F 19.2 °F 47% 29.88 in 10.0 mi WNW 25.3 mph 34.5 mph N/A   Clear
7:55 PM 37.8 °F 26.6 °F 19.4 °F 48% 29.87 in 10.0 mi WNW 24.2 mph 34.5 mph N/A   Clear
8:15 PM 37.9 °F 26.6 °F 19.2 °F 47% 29.87 in 10.0 mi NW 25.3 mph 35.7 mph N/A   Clear
8:35 PM 38.3 °F 26.4 °F 19.2 °F 46% 29.87 in 10.0 mi WNW 28.8 mph 39.1 mph N/A   Clear
8:55 PM 38.3 °F 25.8 °F 19.4 °F 47% 29.87 in 10.0 mi WNW 32.2 mph 39.1 mph N/A   Clear
9:15 PM 38.8 °F 26.3 °F 19.4 °F 46% 29.87 in 10.0 mi WNW 33.4 mph 47.2 mph N/A   Clear
9:35 PM 39.0 °F 27.4 °F 19.9 °F 46% 29.87 in 10.0 mi WNW 28.8 mph 43.7 mph N/A   Clear
9:55 PM 39.4 °F 26.9 °F 20.1 °F 46% 29.86 in 10.0 mi WNW 34.5 mph 47.2 mph N/A   Clear
10:15 PM 39.7 °F 27.2 °F 20.3 °F 46% 29.87 in 10.0 mi WNW 35.7 mph 49.5 mph N/A   Clear
10:35 PM 40.3 °F 28.0 °F 20.3 °F 45% 29.87 in 10.0 mi WNW 35.7 mph 50.6 mph N/A   Clear
10:55 PM 40.1 °F 27.5 °F 20.7 °F 46% 29.88 in 10.0 mi WNW 36.8 mph 46.0 mph N/A   Clear
11:15 PM 40.1 °F 27.9 °F 21.0 °F 47% 29.88 in 10.0 mi WNW 34.5 mph 46.0 mph N/A   Clear
11:35 PM 40.3 °F 28.5 °F 21.0 °F 46% 29.89 in 10.0 mi WNW 32.2 mph 46.0 mph N/A   Clear
11:55 PM 40.8 °F 29.0 °F 21.2 °F 46% 29.89 in 10.0 mi WNW 33.4 mph 44.9 mph N/A   Mostly Cloudy